Location: Pasadena, ca
(34.1243°N, 118.1037°W)
Time: 23:29:03
(UTC-07:00)

N. Korean satellite - Pass Details

Date: 16 October 2017
Orbit: 459 x 517 km, 97.2° (Epoch: 21 October)

Event Time Altitude Azimuth Distance (km) Brightness Sun altitude
Rises 18:42:54 0° 157° (SSE) 2,546 10.1 -6.2°
Reaches altitude 10° 18:45:01 10° 152° (SSE) 1,659 9.1 -6.7°
Maximum altitude 18:48:28 50° 76° (ENE) 618 6.7 -7.4°
Drops below altitude 10° 18:51:53 10° 0° (N) 1,641 9.2 -8.1°
Sets 18:53:58 0° 355° (N) 2,513 10.2 -8.5°
